{"data":{"norad_id":47623,"epoch":"2026-05-25T00:00:02.000160Z","epoch_age_seconds":68373,"freshness":"FRESH","line1":"1 47623U 21012D   26145.00002315  .00163149  00000+0  73261-3 0  9992","line2":"2 47623  53.0324 306.9372 0006175 232.2662  70.2306 15.83128328  5849","mean_motion":15.83128328,"eccentricity":0.0006175,"inclination_deg":53.0324,"raan_deg":306.9372,"arg_perigee_deg":232.2662,"mean_anomaly_deg":70.2306,"bstar":0.00073261,"rev_number":584,"period_min":90.959145543127,"perigee_km":317.46301372789,"apogee_km":325.73718904811,"semimajor_km":6699.737101388,"source":"CELESTRAK","updated_at":"2026-05-25T13:38:16.559476Z"}}